Content
SEND FEEDBACK

Daily
Averages
Monthly
Summary
United States of America

MIDWEST CITY, OKLAHOMA


Home > North America > United States > Oklahoma
Elevation: 1291 feet     Latitude: 35 25N     Longitude: 097 23W

WEATHER
 
SELECT A DAY
Number of Records: 209,365;   Date Range: 1/1/95 - 8/12/14
 
SHARE

PRINT THIS DATA

[ ← Previous Day ]
WEATHER ALMANAC - JANUARY 31, 2013
[ Next Day → ]
[ °C ]   °F
Weather ElementAverageHighLow
Temperature38.7 °F57.4 °F (1:55 pm)24.1 °F (11:55 pm)
Dewpoint21.4 °F28.2 °F (4:55 pm)14.7 °F (11:55 pm)
Humidity53.3 %71 % (6:55 am)26 % (2:55 pm)
Barometer30.19 in30.43 in (8:55 pm)30.04 in (4:55 am)
Wind Speed11.7 mph24.2 mph (3:55 pm)
Wind Gust28.8 mph (3:55 pm)
Weather ElementAverage
Visibility10 mi
Wind DirectionSSE (142.2 °)

Weather ElementTotal
Precipitation---
Heating Degree Days24.3 (Base 65)
Averaged from 23 records on January 31, 2013
WEATHER CONDITIONS BREAKOUT
WIND DIRECTION BREAKOUT
WEATHER BY HOUR - JANUARY 31, 2013
[ °C ]   °F
Local TimeTemperatureDewpointHumidityBarometerVisibilityWind DirectionWind SpeedGust SpeedPrecipitationEventsConditions
1:55 AM31.5 °F20.7 °F64 %30.06 in10.0 miSW (220°)8.1 mphClear
2:55 AM31.6 °F19.2 °F60 %30.06 in10.0 miSW (230°)3.5 mphClear
3:55 AM34.7 °F18.3 °F51 %30.05 in10.0 miWSW (250°)6.9 mphClear
4:55 AM31.8 °F19.0 °F59 %30.04 in10.0 miSSW (210°)4.6 mphClear
5:55 AM29.3 °F19.8 °F68 %30.06 in10.0 miSSE (160°)8.1 mphClear
6:55 AM28.4 °F19.9 °F71 %30.07 in10.0 miSSE (160°)9.2 mphClear
7:55 AM29.3 °F19.6 °F67 %30.09 in10.0 miSouth (170°)8.1 mphClear
8:55 AM34.9 °F22.3 °F60 %30.09 in10.0 miSSE (160°)6.9 mphClear
9:55 AM43.7 °F21.0 °F41 %30.11 in10.0 miSouth (190°)9.2 mphClear
10:55 AM49.6 °F21.6 °F33 %30.10 in10.0 miSouth (190°)13.8 mph21.9 mphClear
11:55 AM54.5 °F23.4 °F30 %30.11 in10.0 miSW (220°)12.7 mphClear
12:55 PM56.8 °F22.8 °F27 %30.09 in10.0 miWest (270°)10.4 mphClear
1:55 PM57.4 °F23.9 °F28 %30.10 in10.0 miNW (320°)13.8 mphClear
2:55 PM57.4 °F22.6 °F26 %30.11 in10.0 miNorth (360°)15.0 mphClear
3:55 PM53.8 °F27.7 °F37 %30.16 in10.0 miNorth (10°)24.2 mph28.8 mphClear
4:55 PM48.7 °F28.2 °F45 %30.23 in10.0 miNNE (20°)18.4 mphClear
5:55 PM42.1 °F27.3 °F56 %30.29 in10.0 miNorth (10°)17.3 mph20.7 mphClear
6:55 PM36.3 °F26.1 °F66 %30.36 in10.0 miNNE (20°)12.7 mphClear
7:55 PM31.3 °F22.1 °F69 %30.41 in10.0 miNNE (20°)18.4 mphClear
8:55 PM28.9 °F20.3 °F70 %30.43 in10.0 miNorth (10°)15.0 mphClear
9:55 PM27.1 °F17.2 °F66 %30.43 in10.0 miNNE (20°)12.7 mphClear
10:55 PM25.9 °F15.1 °F64 %30.42 in10.0 miNNE (20°)12.7 mphClear
11:55 PM24.1 °F14.7 °F68 %30.42 in10.0 miNNE (30°)8.1 mphClear
Hourly data recorded from KTIK, located miles away from Midwest City, Oklahoma







STORIES FROM OUR PARTNERS